Weather in Stuzhen

Russia / Kursk Oblast     51°28′12″N   37°30′25″E
temp.,
°C
wind,
m/s
gust,
m/s
humid.,
%
clouds,
%
prec.,
mm/h
press.,
hPa
HPBL,
m
21 june, mon
mon2100:00+18ene4118195 0.0 1019196
03:00+17ene4128655 0.0 1018210
06:00+18e410825 0.0 1018204
09:00+23ese466636 0.0 1018361
12:00+27ese57534 0.0 1019789
15:00+28ese68545 0.0 10181023
18:00+26ese59646 0.0 1018500
21:00+21e36815 0.0 101979
22 june, tue
tue2200:00+19e411835 0.0 1019172
03:00+18e411835 0.0 1019179
06:00+19e414810 0.0 1019285
09:00+24ese6116597 0.0 1019519
12:00+27ese6960100 0.0 1019837
15:00+29ese5855100 0.0 10191312
18:00+28e48665 0.0 1018448
21:00+23e4118567 0.0 1018187
23 june, wed
wed2300:00+21e4118163 0.0 1019190
03:00+19e411825 0.0 1019190
06:00+20ene4138125 0.0 1018280
09:00+25e61065100 0.0 1018454
12:00+28ese6756100 0.0 1018743
15:00+30ese5551100 0.0 10181065
18:00+28ne4664100 0.0 1017127
21:00+24ne476777 0.0 1018119
24 june, thu
thu2400:00+22e347299 0.0 101863
03:00+21e348470 0.0 101850
06:00+21e37825 0.0 1019159
09:00+26ese58625 0.0 1019423
12:00+30e57515 0.0 1018926
15:00+31e55485 0.0 10181256
18:00+30e245912 0.0 1017506
21:00+24ene347723 0.3 101760
25 june, fri
fri2500:00+22e127810 0.0 101711
03:00+20ene228145 0.0 101720
06:00+21ene248590 0.0 1017104
09:00+26ese3468100 0.0 1017406
12:00+29ene34585 0.0 10171125
15:00+30ene334999 0.0 10161733
18:00+29ene3463100 0.0 1015240
21:00+24ene127599 0.0 101411